Portada
METAR-TAF:

METAR-TAF

Aeroports :

South St. Paul Municipal Airport (Richard E. Fleming Field)

South St. Paul, Minnesota, Estats Units d'Amèrica

latitud: 44-51-26N, longitud: 093-01-58W, altitud: 250 m

Observació

L'informe es va fer fa 25 minuts, a les 03:55 UTC
Vent calma
Temperatura 21°C
Humitat 83%
Pressió 1018 hPa
Visibilitat: 16.1 km
Cel clar

METAR: KSGS 180355Z AUTO 00000KT 10SM CLR 21/18 A3007 RMK AO2 T02080175

Hora: 23:20 (04:20 UTC)


TAF: manca

Observacions i pronòstics meteorològics de més de 4000 aeroports (METAR i TAF).

Les estacions disponibles són els punts grocs i vermells al mapa.

Posi el ratolí al punt desitjat per veure el nom de l'estació.

Feu clic per veure les observacions i els pronòstics meteorològics.

Per canviar el mapa: feu clic els botons verds amb una creu de color negre per apropar; al botó verd amb un guió per allunyar la imatge; o en les fletxes verdes per a mapes adjacents.


METAR-TAF: